Location: Unspecified
(0.0000°N, 0.0000°E)
Time: 11:49:50
(UTC+00:00)

Envisat - Pass Details

Date: 15 August 2019
Orbit: 764 x 766 km, 98.1° (Epoch: 08 December)

Event Time Altitude Azimuth Distance (km) Brightness Sun altitude
Rises 19:46:49 0° 202° (SSW) 3,229 6.3 -24.8°
Reaches altitude 10° 19:50:15 10° 227° (SW) 2,300 5.8 -25.6°
Maximum altitude 19:52:47 14° 257° (WSW) 2,037 5.9 -26.2°
Drops below altitude 10° 19:55:19 10° 288° (WNW) 2,295 6.5 -26.8°
Sets 19:58:46 0° 313° (NW) 3,216 7.2 -27.7°
